Astrometry: WT1190F tC2012 12 07.52711207 42 02.131+51 10 14.08 20.8 R D0524F51 WT1190F tC2012 12 07.53914807 41 55.348+51 09 56.80 20.8 R D0524F51 WT1190F tC2012 12 30.45669006 47 18.830+58 24 26.87 19.4 R D0524F51 WT1190F tC2013 01 01.44920407 20 53.363+55 49 14.54 20.2 R D0524F51 WT1190F tC2013 01 01.45625307 20 47.540+55 48 47.61 19.6 R D0524F51 WT1190F tC2013 01 08.52818408 11 46.652+48 41 03.50 20.2 R D0524F51 WT1190F tC2013 01 08.53958808 11 38.716+48 39 52.82 20.6 R D0524F51 WT1190F tC2013 02 02.40446807 56 36.391+53 55 04.30 20.7 R D0524F51 WT1190F tC2013 02 14.31490308 48 35.706+34 14 13.38 19.8 R D0524F51 WT1190F tC2013 02 14.32695308 48 28.354+34 13 14.42 20.1 R D0524F51 WT1190F C2013 02 18.22823 09 09 04.86 +21 55 20.6 19.4 V D0498G96 WT1190F C2013 02 18.23530 09 09 00.43 +21 53 35.3 19.2 V D0498G96 WT1190F C2013 02 18.24247 09 08 55.93 +21 51 47.6 19.6 V D0498G96 WT1190F C2013 02 18.24955 09 08 51.36 +21 49 58.4 19.5 V D0498G96 WT1190F C2013 02 18.27003 09 08 37.78 +21 44 30.8 19.7 V D0498G96 WT1190F C2013 02 18.27041 09 08 37.53 +21 44 24.8 19.2 V D0498G96 WT1190F C2013 02 18.27082 09 08 37.28 +21 44 18.3 19.5 V D0498G96 WT1190F C2013 02 18.27120 09 08 36.99 +21 44 11.6 19.6 V D0498G96 WT1190F KC2013 02 18.32027409 07 11.69 +21 21 42.5 19.5 V D0498H21 WT1190F KC2013 02 18.32410809 07 10.31 +21 20 24.6 19.4 V D0498H21 WT1190F KC2013 02 18.32734309 07 09.19 +21 19 19.7 19.6 V D0498H21 WT1190F C2013 02 18.40526 09 07 21.25 +21 01 39.5 19.6 V D0498G96 WT1190F C2013 02 18.40571 09 07 21.10 +21 01 29.8 19.3 V D0498G96 WT1190F C2013 02 18.40618 09 07 20.96 +21 01 19.9 19.3 V D0498G96 WT1190F C2013 02 18.40663 09 07 20.82 +21 01 10.2 19.5 V D0498G96 WT1190F C2013 02 18.45186 09 07 11.71 +20 44 36.3 19.3 V D0498G96 WT1190F C2013 02 18.45233 09 07 11.67 +20 44 26.0 19.7 V D0498G96 WT1190F C2013 02 18.45281 09 07 11.64 +20 44 15.1 19.8 V D0498G96 WT1190F C2013 02 18.45325 09 07 11.64 +20 44 04.7 19.6 V D0498G96 WT1190F C2013 11 29.47231 07 18 16.20 +31 56 51.0 20.9 V NEOCPG96 WT1190F C2013 11 29.47855 07 18 12.38 +31 55 17.5 20.6 V NEOCPG96 WT1190F C2013 11 29.48478 07 18 08.56 +31 53 41.4 20.8 V NEOCPG96 WT1190F C2013 11 29.49102 07 18 04.98 +31 52 07.0 20.1 V NEOCPG96 WT1190F C2013 11 29.52635 07 17 46.04 +31 42 31.4 NEOCPG96 WT1190F C2013 11 29.52686 07 17 45.77 +31 42 22.5 21.0 V NEOCPG96 WT1190F C2013 11 29.52789 07 17 45.32 +31 42 06.3 20.9 V NEOCPG96 WT1190F C2013 11 29.53689 07 17 41.27 +31 39 32.8 21.4 V NEOCPG96 WT1190F C2013 11 29.53752 07 17 40.94 +31 39 20.7 NEOCPG96 WT1190F C2013 11 29.53877 07 17 40.44 +31 38 59.4 21.5 V NEOCPG96 WT1190F tC2015 09 19.56654405 34 45.409+02 19 34.43 21.2 R D0524F51 WT1190F tC2015 09 19.57947605 34 41.335+02 19 33.68 21.1 R D0524F51 WT1190F tC2015 09 19.59241005 34 36.830+02 19 32.60 21.0 R D0524F51 WT1190F tC2015 09 19.60537105 34 31.805+02 19 30.97 21.2 R D0524F51 WT1190F C2015 10 03.42043 03 20 35.54 +02 06 35.8 17.8 VqD0520703 WT1190F C2015 10 03.42546 03 20 47.83 +02 06 49.2 18.1 VqD0520703 WT1190F C2015 10 03.43050 03 20 59.87 +02 07 01.3 17.9 VqD0520703 WT1190F C2015 10 03.43554 03 21 11.90 +02 07 12.9 18.0 VqD0520703 WT1190F C2015 10 03.45801 03 22 05.20 +02 08 01.0 17.9 VqD0520703 WT1190F C2015 10 03.45834 03 22 06.05 +02 08 01.8 18.1 VqD0520703 WT1190F C2015 10 03.45866 03 22 06.78 +02 08 03.0 18.4 VqD0520703 WT1190F C2015 10 03.45899 03 22 07.61 +02 08 02.2 18.0 VqD0520703 WT1190F C2015 10 03.46579 03 22 24.07 +02 08 12.9 18.3 VqD0520G96 WT1190F C2015 10 03.47159 03 22 37.87 +02 08 23.7 18.0 VqD0520G96 WT1190F C2015 10 03.47739 03 22 51.70 +02 08 33.8 18.1 VqD0520G96 WT1190F C2015 10 03.48318 03 23 05.59 +02 08 43.6 18.1 VqD0520G96 WT1190F C2015 10 03.66893 03 40 45.56 +02 10 11.8 18.7 V D0520900 WT1190F C2015 10 03.67397 03 40 53.07 +02 10 21.5 19.1 V D0520900 WT1190F C2015 10 03.67900 03 41 00.33 +02 10 31.8 18.9 V D0520900 WT1190F C2015 10 03.68404 03 41 07.44 +02 10 42.7 19.1 V D0520900 WT1190F IC2015 10 05.00657104 25 23.54 +03 34 42.4 20.0 RqD0520K91 WT1190F sC2015 10 05.00827704 25 23.65 +03 34 42.0 19.9 RqD0520K91 WT1190F C2015 10 05.00996004 25 23.79 +03 34 41.8 19.8 RqD0520K91 WT1190F C2015 10 05.01870604 25 24.25 +03 34 39.6 20.1 RqD0520K91 WT1190F C2015 10 05.02040104 25 24.29 +03 34 39.2 20.2 RqD0520K91 WT1190F C2015 10 05.02207604 25 24.36 +03 34 38.7 19.8 RqD0520K91 WT1190F C2015 10 05.02388604 25 24.38 +03 34 38.0 19.6 RqD0520K91 WT1190F C2015 10 05.06979504 25 22.39 +03 34 16.5 19.7 R D0520K92 WT1190F C2015 10 05.07151304 25 22.24 +03 34 15.2 20.0 R D0520K92 WT1190F C2015 10 05.07344304 25 22.07 +03 34 14.0 19.8 R D0520K92 WT1190F C2015 10 05.07909104 25 21.58 +03 34 10.1 20.1 R D0520K92 WT1190F C2015 10 05.08084104 25 21.41 +03 34 08.8 19.7 R D0520K92 WT1190F C2015 10 05.08265104 25 21.24 +03 34 07.7 20.2 R D0520K92 WT1190F C2015 10 05.08438504 25 21.07 +03 34 06.2 20.0 R D0520K92 WT1190F C2015 10 05.08610104 25 20.92 +03 34 05.0 20.0 R D0520K92 WT1190F C2015 10 05.08788104 25 20.76 +03 34 03.8 20.0 R D0520K92 WT1190F C2015 10 05.10363004 25 19.26 +03 33 50.3 20.4 R D0520K92 WT1190F C2015 10 05.10541104 25 19.10 +03 33 48.8 20.0 R D0520K92 WT1190F C2015 10 05.10714604 25 18.97 +03 33 47.4 20.0 R D0520K92 WT1190F C2015 10 05.10897304 25 18.80 +03 33 45.7 19.9 R D0520K92 WT1190F C2015 10 05.11262404 25 18.52 +03 33 42.2 19.9 R D0520K92 WT1190F C2015 10 05.11606904 25 18.23 +03 33 38.8 19.8 R D0520K92 WT1190F C2015 10 05.11805004 25 18.09 +03 33 37.0 20.2 R D0520K92 WT1190F C2015 10 05.12349004 25 17.73 +03 33 31.4 20.0 R D0520K92 WT1190F C2015 10 05.12525404 25 17.61 +03 33 29.4 20.0 R D0520K92 WT1190F C2015 10 05.12889704 25 17.41 +03 33 25.8 19.8 R D0520K92 WT1190F C2015 10 06.00640604 42 31.99 +03 24 37.0 20.3 R D0521K91 WT1190F C2015 10 06.00811104 42 31.81 +03 24 37.0 20.2 R D0521K91 WT1190F C2015 10 06.01005004 42 31.66 +03 24 37.0 20.0 R D0521K91 WT1190F C2015 10 06.01212204 42 31.47 +03 24 37.0 21.0 R D0521K91 WT1190F C2015 10 06.01379404 42 31.30 +03 24 37.0 20.2 R D0521K91 WT1190F C2015 10 06.01591904 42 31.08 +03 24 37.0 20.9 R D0521K91 WT1190F C2015 10 06.01766904 42 30.85 +03 24 37.3 20.5 R D0521K91 WT1190F C2015 10 06.01936804 42 30.68 +03 24 37.3 20.4 R D0521K91 WT1190F C2015 10 06.02143704 42 30.40 +03 24 37.2 20.0 R D0521K91 WT1190F C2015 10 06.02399504 42 30.06 +03 24 37.2 20.4 R D0521K91 WT1190F KC2015 10 06.06881704 42 21.28 +03 24 29.8 20.5 R D0521K91 WT1190F KC2015 10 06.07179304 42 20.57 +03 24 28.9 20.4 R D0521K91 WT1190F KC2015 10 06.07770904 42 19.14 +03 24 27.0 20.3 R D0521K91 WT1190F KC2015 10 06.08062804 42 18.41 +03 24 26.2 20.6 R D0521K91 WT1190F KC2015 10 06.08239404 42 17.97 +03 24 25.3 20.1 R D0521K91 WT1190F KC2015 10 07.36995504 57 02.44 +03 15 14.6 21.0 R D0521W87 WT1190F IC2015 10 07.37276904 57 01.43 +03 15 13.6 20.3 R D0521W87 WT1190F KC2015 10 07.37558104 57 00.47 +03 15 12.7 20.8 R D0521W87 WT1190F KC2015 10 07.37839404 56 59.50 +03 15 12.0 20.6 R D0521W87 WT1190F KC2015 10 07.38121004 56 58.52 +03 15 09.9 20.7 R D0521W87 WT1190F KC2015 10 07.38402904 56 57.58 +03 15 09.5 20.4 R D0521W87 WT1190F KC2015 10 07.38684204 56 56.62 +03 15 08.0 20.2 R D0521W87 WT1190F tC2015 10 09.63008705 15 36.713+02 35 10.80 20.5 R 568 WT1190F tC2015 10 09.63121305 15 36.214+02 35 10.58 20.6 R 568 WT1190F tC2015 10 09.63232805 15 35.716+02 35 10.26 20.7 R 568 WT1190F C2015 10 22.04316406 41 37.514+01 51 15.08 19.9 R D0523098 WT1190F KC2015 10 22.05159706 41 38.697+01 51 13.40 19.9 R D0523098 WT1190F KC2015 10 22.05736306 41 39.344+01 51 12.13 19.9 R D0523098 WT1190F C2015 10 22.11695 06 42 30.82 +01 57 55.5 19.7 R D0523G36 WT1190F C2015 10 22.14422 06 42 26.72 +01 57 50.4 19.0 R D0523G36 WT1190F C2015 10 22.16424 06 42 22.26 +01 57 44.8 19.5 R D0523G36 WT1190F C2015 10 22.19624 06 42 13.59 +01 57 31.6 20.2 R D0523G36 WT1190F KC2015 10 22.30494506 45 52.97 +03 08 22.2 19.6 R D0523W86 WT1190F KC2015 10 22.30836106 45 52.49 +03 08 26.4 19.4 R D0523W86 WT1190F IC2015 10 22.31178006 45 51.97 +03 08 30.3 D0523W86 WT1190F KC2015 10 22.31519206 45 51.39 +03 08 34.4 19.6 R D0523W86 WT1190F KC2015 10 23.31842307 11 23.57 +03 24 59.3 19.3 R W86 WT1190F KC2015 10 23.32167707 11 25.28 +03 25 07.6 19.2 R W86 WT1190F KC2015 10 23.32494607 11 26.94 +03 25 15.7 19.0 R W86 WT1190F IC2015 10 23.32822607 11 28.54 +03 25 24.1 R W86 WT1190F C2015 10 23.50176 07 16 32.42 +01 42 23.5 19.2 V D0524G96 WT1190F C2015 10 23.50332 07 16 33.20 +01 42 20.5 18.9 V D0524G96 WT1190F C2015 10 23.50488 07 16 33.97 +01 42 17.5 18.8 V D0524G96 WT1190F C2015 10 23.50644 07 16 34.75 +01 42 14.4 19.1 V D0524G96 Station data: (098) Asiago Observatory, Cima Ekar (N45.8497 E11.5688) Italy. Observers P. Ochner, M. Lazzarin, M. Micheli. Measurer M. Micheli. 1.82-m reflector + CCD. (568) Mauna Kea (N19.8262 W155.4722) US/Hawaii. Observer D. J. Tholen. 2.24-m University of Hawaii reflector. (703) Catalina Sky Survey (N32.41712 W110.73264) US/Arizona. Observers E. J. Christensen, A. R. Gibbs, A. D. Grauer, R. E. Hill, J. A. Johnson, R. A. Kowalski, S. M. Larson, F. C. Shelly. 0.68 m Schmidt + CCD. (900) Moriyama (N35.04980 E135.98994) Japan. 0.25-m Schmidt-Cassegrain. (F51) Pan-STARRS 1, Haleakala (N20.70733 W156.25591) US/Hawaii. Observers N. Primak, A. Schultz, S. Watters, J. Thiel, T. Goggia. Measurer PS1 Science Consortium. 1.8-m Ritchey-Chretien + CCD. (G36) Calar Alto-CASADO (N37.22299 W2.54750) Spain. (G96) Mt. Lemmon Survey (N32.44287 W110.78872) US/Arizona. Observers E. J. Christensen, A. R. Gibbs, A. D. Grauer, R. E. Hill, J. A. Johnson, R. A. Kowalski, S. M. Larson, F. C. Shelly. 1.5-m reflector + CCD. (H21) Astronomical Research Observatory, Westfield (N39.48311 W87.96827) US/Illinois. 0.76-m f/3.0 astrograph + CCD. (K91) Sutherland-LCOGT A (S32.38063 E20.81019) South Africa. (K92) Sutherland-LCOGT B (S32.38063 E20.81004) South Africa. (W86) Cerro Tololo-LCOGT B (S30.16742 W70.80467) Chile. Observers T. Lister, S. Greenstreet, E. Gomez. Measurer T. Lister. 1.0-m f/8 Ritchey-Chretien + CCD. (W87) Cerro Tololo-LCOGT C (S30.16755 W70.80468) Chile. Orbital elements: UDA34A3 = UW8551D = WT1190F Perigee 2015 Oct 2.610209 +/- 6.5e-6 TT; A1=2.21e-9, A2=-1.85e-10 Epoch 2015 Oct 3.0 TT = JDT 2457298.5 Find_Orb M 6.191370 +/- 0.00010 (J2000 equatorial) n 15.883828633 +/- 3.83e-6 Peri. 314.035477 +/- 0.00023 a338298.4782 +/- 0.0544 Node 311.564448 +/- 0.00024 e 0.93726853 +/- 2.49e-7 Incl. 3.196462 +/- 0.000040 P 22.66d H 31.2 G 0.15 U 4.4 q 21221.95796 +/- 0.082 Q 655374.9985 +/- 0.174 From 129 observations 2012 Dec. 7-2015 Oct. 23; mean residual 1".127
